QPF
0.00 0.00 0.00 0.00 0.00 0.00 0.00 0.00 0.00 0.00 0.00 0.00 0.00 0.00 0.00 0.00 0.00 0.00 0.00 0.00 0.01 0.02 0.02 0.02 0.03 0.04 0.04 0.03 0.02 0.02 0.01 0.01 0.01 0.01 0.01 0.01 0.01 0.01 0.01 0.01 0.01 0.02 0.02 0.02 0.03 0.04 0.04 0.03 0.05
0.00 0.00 0.00 0.00 0.00 0.00 0.00 0.00 0.00 0.00 0.00 0.00 0.00 0.00 0.00 0.00 0.00 0.00 0.00 0.00 0.00 0.00 0.00 0.00 0.01 0.01 0.02 0.02 0.02 0.01 0.01 0.01 0.01 0.01 0.01 0.01 0.01 0.01 0.01 0.01 0.01 0.01 0.01 0.01 0.02 0.02 0.02 0.02 0.02
0.00 0.00 0.00 0.00 0.00 0.00 0.00 0.00 0.00 0.00 0.00 0.00 0.00 0.00 0.00 0.00 0.00 0.00 0.00 0.00 0.00 0.00 0.00 0.00 0.00 0.00 0.01 0.01 0.01 0.01 0.01 0.01 0.01 0.01 0.01 0.01 0.02 0.02 0.02 0.01 0.01 0.01 0.01 0.00 0.00 0.01 0.01 0.01 0.01
0.00 0.00 0.00 0.00 0.00 0.00 0.00 0.00 0.00 0.00 0.00 0.00 0.00 0.00 0.00 0.00 0.00 0.00 0.00 0.00 0.00 0.00 0.00 0.00 0.00 0.00 0.00 0.00 0.00 0.00 0.00 0.00 0.01 0.01 0.01 0.01 0.02 0.03 0.02 0.02 0.02 0.01 0.01 0.00 0.01 0.01 0.02 0.03 0.03
0.00 0.00 0.00 0.00 0.00 0.00 0.00 0.00 0.00 0.00 0.00 0.00 0.00 0.00 0.00 0.00 0.00 0.00 0.00 0.00 0.00 0.00 0.00 0.00 0.00 0.00 0.00 0.00 0.00 0.00 0.00 0.00 0.00 0.00 0.00 0.00 0.01 0.02 0.03 0.02 0.02 0.02 0.02 0.01 0.01 0.01 0.02 0.04 0.05
0.00 0.00 0.00 0.00 0.00 0.00 0.00 0.00 0.00 0.00 0.00 0.00 0.00 0.00 0.00 0.00 0.00 0.00 0.00 0.00 0.00 0.00 0.00 0.00 0.00 0.00 0.00 0.00 0.00 0.00 0.00 0.00 0.00 0.00 0.00 0.00 0.01 0.02 0.03 0.03 0.02 0.02 0.02 0.02 0.02 0.02 0.02 0.03 0.05
0.00 0.00 0.00 0.00 0.00 0.00 0.00 0.00 0.00 0.00 0.00 0.00 0.00 0.00 0.00 0.00 0.00 0.00 0.00 0.00 0.00 0.00 0.00 0.00 0.00 0.00 0.00 0.00 0.00 0.00 0.00 0.00 0.00 0.00 0.00 0.00 0.00 0.01 0.01 0.01 0.01 0.01 0.02 0.03 0.03 0.03 0.04 0.04 0.04
0.00 0.00 0.00 0.00 0.00 0.00 0.00 0.00 0.00 0.00 0.00 0.00 0.00 0.00 0.00 0.00 0.00 0.00 0.00 0.00 0.00 0.00 0.00 0.00 0.00 0.00 0.00 0.00 0.00 0.00 0.00 0.00 0.00 0.00 0.00 0.00 0.00 0.00 0.01 0.01 0.01 0.01 0.01 0.02 0.04 0.04 0.05 0.05 0.04
0.00 0.00 0.00 0.00 0.00 0.00 0.00 0.00 0.00 0.00 0.00 0.00 0.00 0.00 0.00 0.00 0.00 0.00 0.00 0.00 0.00 0.00 0.00 0.00 0.00 0.00 0.00 0.00 0.00 0.00 0.00 0.00 0.00 0.00 0.00 0.00 0.00 0.00 0.00 0.00 0.01 0.01 0.01 0.01 0.03 0.05 0.04 0.04 0.03
0.00 0.00 0.00 0.00 0.00 0.00 0.00 0.00 0.00 0.00 0.00 0.00 0.00 0.00 0.00 0.00 0.00 0.00 0.00 0.00 0.00 0.00 0.00 0.00 0.00 0.00 0.00 0.00 0.00 0.00 0.00 0.00 0.00 0.00 0.00 0.00 0.00 0.00 0.00 0.00 0.00 0.00 0.01 0.01 0.02 0.03 0.04 0.05 0.04
0.00 0.00 0.00 0.00 0.00 0.00 0.00 0.00 0.00 0.00 0.00 0.00 0.00 0.00 0.00 0.00 0.00 0.00 0.00 0.00 0.00 0.00 0.00 0.00 0.00 0.00 0.00 0.00 0.00 0.00 0.00 0.00 0.00 0.00 0.00 0.00 0.00 0.00 0.00 0.00 0.00 0.00 0.00 0.01 0.01 0.02 0.05 0.09 0.12
0.00 0.00 0.00 0.00 0.00 0.00 0.00 0.00 0.00 0.00 0.00 0.00 0.00 0.00 0.00 0.00 0.00 0.00 0.00 0.00 0.00 0.00 0.00 0.00 0.00 0.00 0.00 0.00 0.00 0.00 0.00 0.00 0.00 0.00 0.00 0.00 0.00 0.00 0.00 0.00 0.00 0.00 0.00 0.00 0.00 0.01 0.03 0.05 0.08
0.00 0.00 0.00 0.00 0.00 0.00 0.00 0.00 0.00 0.00 0.00 0.00 0.00 0.00 0.00 0.00 0.00 0.00 0.00 0.00 0.00 0.00 0.00 0.00 0.00 0.00 0.00 0.00 0.00 0.00 0.00 0.00 0.00 0.00 0.00 0.00 0.00 0.00 0.00 0.00 0.00 0.00 0.00 0.00 0.00 0.00 0.01 0.02 0.03
0.00 0.00 0.00 0.00 0.00 0.00 0.00 0.00 0.00 0.00 0.00 0.00 0.00 0.00 0.00 0.00 0.00 0.00 0.00 0.00 0.00 0.00 0.00 0.00 0.00 0.00 0.00 0.00 0.00 0.00 0.00 0.00 0.00 0.00 0.00 0.00 0.00 0.00 0.00 0.00 0.00 0.00 0.00 0.00 0.00 0.00 0.00 0.01 0.01
0.00 0.00 0.00 0.00 0.00 0.00 0.00 0.00 0.00 0.00 0.00 0.00 0.00 0.00 0.00 0.00 0.00 0.00 0.00 0.00 0.00 0.00 0.00 0.00 0.00 0.00 0.00 0.00 0.00 0.00 0.00 0.00 0.00 0.00 0.00 0.00 0.00 0.00 0.00 0.00 0.00 0.00 0.00 0.00 0.00 0.00 0.00 0.00 0.00
0.00 0.00 0.00 0.00 0.00 0.00 0.00 0.00 0.00 0.00 0.00 0.00 0.00 0.00 0.00 0.00 0.00 0.00 0.00 0.00 0.00 0.00 0.00 0.00 0.00 0.00 0.00 0.00 0.00 0.00 0.00 0.00 0.00 0.00 0.00 0.00 0.00 0.00 0.00 0.00 0.00 0.00 0.00 0.00 0.00 0.00 0.00 0.00 0.00
0.00 0.00 0.00 0.00 0.00 0.00 0.00 0.00 0.00 0.00 0.00 0.00 0.00 0.00 0.00 0.00 0.00 0.00 0.00 0.00 0.00 0.00 0.00 0.00 0.00 0.00 0.00 0.00 0.00 0.00 0.00 0.00 0.00 0.00 0.00 0.00 0.00 0.00 0.00 0.00 0.00 0.00 0.00 0.00 0.00 0.00 0.00 0.00 0.00
0.00 0.00 0.00 0.00 0.00 0.00 0.00 0.00 0.00 0.00 0.00 0.00 0.00 0.00 0.00 0.00 0.00 0.00 0.00 0.00 0.00 0.00 0.00 0.00 0.00 0.00 0.00 0.00 0.00 0.00 0.00 0.00 0.00 0.00 0.00 0.00 0.00 0.00 0.00 0.00 0.00 0.00 0.00 0.00 0.00 0.00 0.00 0.00 0.00
0.00 0.00 0.00 0.00 0.00 0.00 0.00 0.00 0.00 0.00 0.00 0.00 0.00 0.00 0.00 0.00 0.00 0.00 0.00 0.00 0.00 0.00 0.00 0.00 0.00 0.00 0.00 0.00 0.00 0.00 0.00 0.00 0.00 0.00 0.00 0.00 0.00 0.00 0.00 0.00 0.00 0.00 0.00 0.00 0.00 0.00 0.00 0.00 0.00
0.00 0.00 0.00 0.00 0.00 0.00 0.00 0.00 0.00 0.00 0.00 0.00 0.00 0.00 0.00 0.00 0.00 0.00 0.00 0.00 0.00 0.00 0.00 0.00 0.00 0.00 0.00 0.00 0.00 0.00 0.00 0.00 0.00 0.00 0.00 0.00 0.00 0.00 0.00 0.00 0.00 0.00 0.00 0.00 0.00 0.00 0.00 0.00 0.00
0.00 0.00 0.00 0.00 0.00 0.00 0.00 0.00 0.00 0.00 0.00 0.00 0.00 0.00 0.00 0.00 0.00 0.00 0.00 0.00 0.00 0.00 0.00 0.00 0.00 0.00 0.00 0.00 0.00 0.00 0.00 0.00 0.00 0.00 0.00 0.00 0.00 0.00 0.00 0.00 0.00 0.00 0.00 0.00 0.00 0.00 0.01 0.01 0.00
0.00 0.00 0.00 0.00 0.00 0.00 0.00 0.00 0.00 0.00 0.00 0.00 0.00 0.00 0.00 0.00 0.00 0.00 0.00 0.00 0.00 0.00 0.00 0.00 0.00 0.00 0.00 0.00 0.00 0.00 0.00 0.00 0.00 0.00 0.00 0.00 0.00 0.00 0.00 0.00 0.00 0.00 0.00 0.00 0.00 0.00 0.01 0.01 0.01
0.00 0.00 0.00 0.00 0.00 0.00 0.00 0.00 0.00 0.00 0.00 0.00 0.00 0.00 0.00 0.00 0.00 0.00 0.00 0.00 0.00 0.00 0.00 0.00 0.00 0.00 0.00 0.00 0.00 0.00 0.00 0.00 0.00 0.00 0.00 0.00 0.00 0.00 0.00 0.00 0.00 0.00 0.00 0.00 0.01 0.01 0.01 0.02 0.02
0.00 0.00 0.00 0.00 0.00 0.00 0.00 0.00 0.00 0.00 0.00 0.00 0.00 0.00 0.00 0.00 0.00 0.00 0.00 0.00 0.00 0.00 0.00 0.00 0.00 0.00 0.00 0.00 0.00 0.00 0.00 0.00 0.00 0.00 0.00 0.00 0.00 0.00 0.00 0.00 0.00 0.00 0.00 0.01 0.01 0.01 0.01 0.02 0.02
0.00 0.00 0.00 0.00 0.00 0.00 0.00 0.00 0.00 0.00 0.00 0.00 0.00 0.00 0.00 0.00 0.00 0.00 0.00 0.00 0.00 0.00 0.00 0.00 0.00 0.00 0.00 0.00 0.00 0.00 0.00 0.00 0.00 0.00 0.00 0.00 0.00 0.00 0.00 0.00 0.00 0.00 0.00 0.01 0.02 0.02 0.02 0.02 0.02
0.00 0.00 0.00 0.00 0.00 0.00 0.00 0.00 0.00 0.00 0.00 0.00 0.00 0.00 0.00 0.00 0.00 0.00 0.00 0.00 0.00 0.00 0.00 0.00 0.00 0.00 0.00 0.00 0.00 0.00 0.00 0.00 0.00 0.00 0.00 0.00 0.00 0.00 0.00 0.00 0.00 0.00 0.00 0.01 0.02 0.02 0.02 0.02 0.02
0.00 0.00 0.00 0.00 0.00 0.00 0.00 0.00 0.00 0.00 0.00 0.00 0.00 0.00 0.00 0.00 0.00 0.00 0.00 0.00 0.00 0.00 0.00 0.00 0.00 0.00 0.00 0.00 0.00 0.00 0.00 0.00 0.00 0.00 0.00 0.00 0.00 0.00 0.00 0.00 0.00 0.00 0.01 0.01 0.02 0.02 0.02 0.02 0.02
0.00 0.00 0.00 0.00 0.00 0.00 0.00 0.00 0.00 0.00 0.00 0.00 0.00 0.00 0.00 0.00 0.00 0.00 0.00 0.00 0.00 0.00 0.00 0.00 0.00 0.00 0.00 0.00 0.00 0.00 0.00 0.00 0.00 0.00 0.00 0.00 0.00 0.00 0.00 0.00 0.00 0.00 0.01 0.01 0.02 0.02 0.02 0.02 0.01
0.00 0.00 0.00 0.00 0.00 0.00 0.00 0.00 0.00 0.00 0.00 0.00 0.00 0.00 0.00 0.00 0.00 0.00 0.00 0.00 0.00 0.00 0.00 0.00 0.00 0.00 0.00 0.00 0.00 0.00 0.00 0.00 0.00 0.00 0.00 0.00 0.00 0.00 0.00 0.00 0.00 0.00 0.01 0.02 0.02 0.02 0.02 0.01 0.01
0.00 0.00 0.00 0.00 0.00 0.00 0.00 0.00 0.00 0.00 0.00 0.00 0.00 0.00 0.00 0.00 0.00 0.00 0.00 0.00 0.00 0.00 0.00 0.00 0.00 0.00 0.00 0.00 0.00 0.00 0.00 0.00 0.00 0.00 0.00 0.00 0.00 0.00 0.00 0.00 0.00 0.00 0.01 0.02 0.03 0.03 0.02 0.01 0.01
MSLP
1011.69 1012.39 1013.48 1014.82 1016.22 1017.49 1018.48 1019.12 1019.43 1019.54 1019.63 1019.87 1020.41 1021.29 1022.48 1023.82 1025.11 1026.15 1026.78 1026.90 1026.55 1025.81 1024.85 1023.82 1022.89 1022.12 1021.54 1021.11 1020.75 1020.39 1019.98 1019.50 1018.97 1018.46 1018.00 1017.63 1017.38 1017.21 1017.09 1016.97 1016.82 1016.62 1016.38 1016.15 1015.94 1015.78 1015.69 1015.64 1015.62
1012.00 1012.95 1014.29 1015.82 1017.36 1018.72 1019.75 1020.39 1020.70 1020.80 1020.89 1021.14 1021.68 1022.54 1023.66 1024.90 1026.07 1026.96 1027.43 1027.42 1026.97 1026.18 1025.20 1024.21 1023.32 1022.61 1022.08 1021.68 1021.32 1020.95 1020.51 1020.00 1019.45 1018.91 1018.42 1018.03 1017.74 1017.51 1017.31 1017.11 1016.86 1016.57 1016.26 1015.95 1015.70 1015.52 1015.42 1015.38 1015.37
1012.38 1013.58 1015.12 1016.81 1018.45 1019.85 1020.89 1021.53 1021.83 1021.93 1022.03 1022.28 1022.81 1023.62 1024.66 1025.77 1026.78 1027.49 1027.79 1027.65 1027.12 1026.30 1025.36 1024.43 1023.64 1023.02 1022.56 1022.20 1021.87 1021.49 1021.04 1020.50 1019.93 1019.36 1018.86 1018.43 1018.10 1017.81 1017.54 1017.25 1016.91 1016.53 1016.14 1015.77 1015.46 1015.25 1015.14 1015.11 1015.11
1012.86 1014.26 1015.96 1017.76 1019.45 1020.85 1021.87 1022.49 1022.78 1022.90 1023.01 1023.27 1023.77 1024.53 1025.46 1026.41 1027.23 1027.76 1027.90 1027.65 1027.06 1026.26 1025.39 1024.57 1023.90 1023.40 1023.03 1022.73 1022.41 1022.03 1021.56 1020.99 1020.39 1019.80 1019.27 1018.83 1018.46 1018.13 1017.80 1017.43 1017.01 1016.55 1016.09 1015.66 1015.31 1015.06 1014.93 1014.88 1014.89
1013.47 1015.04 1016.84 1018.68 1020.36 1021.73 1022.71 1023.30 1023.59 1023.71 1023.85 1024.12 1024.60 1025.29 1026.09 1026.88 1027.51 1027.85 1027.85 1027.51 1026.91 1026.16 1025.40 1024.72 1024.19 1023.81 1023.53 1023.28 1022.98 1022.58 1022.08 1021.48 1020.85 1020.24 1019.70 1019.23 1018.84 1018.48 1018.11 1017.69 1017.21 1016.69 1016.16 1015.68 1015.28 1014.99 1014.82 1014.74 1014.71
1014.26 1015.93 1017.77 1019.59 1021.21 1022.51 1023.42 1023.98 1024.27 1024.42 1024.59 1024.88 1025.34 1025.96 1026.64 1027.27 1027.72 1027.90 1027.78 1027.38 1026.80 1026.13 1025.50 1024.97 1024.58 1024.32 1024.11 1023.89 1023.59 1023.16 1022.62 1021.98 1021.33 1020.70 1020.15 1019.68 1019.28 1018.90 1018.50 1018.05 1017.53 1016.96 1016.38 1015.85 1015.39 1015.05 1014.81 1014.67 1014.58
1015.25 1016.96 1018.77 1020.51 1022.03 1023.23 1024.07 1024.58 1024.88 1025.07 1025.29 1025.61 1026.06 1026.61 1027.18 1027.66 1027.96 1028.01 1027.81 1027.39 1026.85 1026.29 1025.78 1025.39 1025.13 1024.95 1024.79 1024.57 1024.24 1023.77 1023.18 1022.51 1021.83 1021.20 1020.66 1020.20 1019.80 1019.42 1019.01 1018.53 1017.97 1017.36 1016.74 1016.14 1015.62 1015.20 1014.89 1014.67 1014.50
1016.41 1018.11 1019.84 1021.46 1022.84 1023.91 1024.67 1025.15 1025.46 1025.70 1025.97 1026.33 1026.78 1027.28 1027.76 1028.13 1028.31 1028.27 1028.02 1027.61 1027.13 1026.67 1026.28 1026.00 1025.82 1025.69 1025.53 1025.29 1024.91 1024.39 1023.76 1023.07 1022.39 1021.77 1021.24 1020.80 1020.41 1020.03 1019.60 1019.10 1018.51 1017.85 1017.17 1016.52 1015.93 1015.43 1015.03 1014.70 1014.43
1017.70 1019.34 1020.95 1022.42 1023.64 1024.58 1025.25 1025.70 1026.03 1026.32 1026.65 1027.05 1027.51 1027.98 1028.39 1028.68 1028.78 1028.68 1028.42 1028.05 1027.64 1027.27 1026.97 1026.77 1026.63 1026.50 1026.31 1026.02 1025.58 1025.01 1024.35 1023.65 1022.98 1022.39 1021.89 1021.47 1021.09 1020.71 1020.26 1019.72 1019.09 1018.38 1017.65 1016.93 1016.26 1015.68 1015.19 1014.76 1014.38
1019.02 1020.58 1022.05 1023.34 1024.40 1025.21 1025.80 1026.23 1026.58 1026.93 1027.31 1027.75 1028.21 1028.66 1029.03 1029.26 1029.32 1029.21 1028.97 1028.66 1028.32 1028.03 1027.80 1027.64 1027.50 1027.33 1027.08 1026.71 1026.21 1025.60 1024.92 1024.23 1023.59 1023.04 1022.58 1022.19 1021.82 1021.42 1020.95 1020.36 1019.68 1018.92 1018.13 1017.35 1016.62 1015.96 1015.38 1014.86 1014.38
1020.30 1021.75 1023.07 1024.19 1025.10 1025.79 1026.31 1026.73 1027.10 1027.48 1027.91 1028.38 1028.84 1029.27 1029.61 1029.81 1029.87 1029.78 1029.59 1029.34 1029.09 1028.87 1028.69 1028.53 1028.36 1028.13 1027.80 1027.34 1026.78 1026.13 1025.45 1024.79 1024.21 1023.71 1023.29 1022.92 1022.55 1022.13 1021.62 1020.99 1020.25 1019.44 1018.60 1017.77 1016.99 1016.27 1015.62 1015.03 1014.46
1021.44 1022.77 1023.94 1024.91 1025.68 1026.28 1026.75 1027.16 1027.55 1027.97 1028.42 1028.89 1029.35 1029.76 1030.07 1030.27 1030.33 1030.29 1030.18 1030.02 1029.85 1029.70 1029.55 1029.38 1029.16 1028.86 1028.44 1027.91 1027.30 1026.63 1025.96 1025.34 1024.80 1024.36 1023.98 1023.63 1023.25 1022.80 1022.25 1021.58 1020.80 1019.95 1019.08 1018.23 1017.42 1016.66 1015.96 1015.30 1014.65
1022.38 1023.59 1024.62 1025.46 1026.13 1026.66 1027.10 1027.51 1027.92 1028.36 1028.82 1029.28 1029.71 1030.09 1030.38 1030.57 1030.67 1030.69 1030.66 1030.61 1030.54 1030.45 1030.33 1030.16 1029.89 1029.52 1029.03 1028.44 1027.78 1027.10 1026.45 1025.87 1025.39 1024.98 1024.63 1024.28 1023.89 1023.41 1022.83 1022.12 1021.33 1020.47 1019.60 1018.74 1017.92 1017.15 1016.41 1015.69 1014.98
1023.08 1024.17 1025.07 1025.81 1026.41 1026.90 1027.34 1027.77 1028.20 1028.65 1029.09 1029.53 1029.92 1030.26 1030.52 1030.72 1030.86 1030.96 1031.02 1031.08 1031.10 1031.09 1031.01 1030.84 1030.54 1030.12 1029.58 1028.94 1028.27 1027.59 1026.96 1026.42 1025.96 1025.58 1025.23 1024.87 1024.46 1023.96 1023.35 1022.64 1021.84 1021.01 1020.16 1019.33 1018.54 1017.76 1017.00 1016.22 1015.43
1023.54 1024.50 1025.30 1025.97 1026.52 1027.02 1027.48 1027.94 1028.39 1028.85 1029.28 1029.67 1030.02 1030.31 1030.56 1030.76 1030.94 1031.11 1031.28 1031.43 1031.56 1031.62 1031.59 1031.44 1031.14 1030.69 1030.13 1029.48 1028.80 1028.13 1027.52 1026.99 1026.54 1026.16 1025.79 1025.41 1024.97 1024.44 1023.82 1023.12 1022.36 1021.57 1020.78 1020.00 1019.24 1018.47 1017.68 1016.86 1015.98
1023.79 1024.63 1025.33 1025.94 1026.49 1027.01 1027.52 1028.02 1028.51 1028.98 1029.40 1029.76 1030.06 1030.31 1030.54 1030.74 1030.97 1031.21 1031.46 1031.72 1031.94 1032.08 1032.10 1031.98 1031.70 1031.26 1030.70 1030.06 1029.38 1028.73 1028.13 1027.61 1027.15 1026.73 1026.33 1025.90 1025.43 1024.88 1024.26 1023.58 1022.87 1022.15 1021.43 1020.71 1019.98 1019.22 1018.42 1017.53 1016.57
1023.88 1024.58 1025.21 1025.78 1026.34 1026.90 1027.47 1028.03 1028.56 1029.05 1029.47 1029.81 1030.09 1030.32 1030.53 1030.75 1031.01 1031.32 1031.65 1031.99 1032.28 1032.49 1032.57 1032.48 1032.23 1031.82 1031.28 1030.67 1030.02 1029.39 1028.79 1028.25 1027.76 1027.30 1026.84 1026.36 1025.84 1025.27 1024.66 1024.02 1023.36 1022.70 1022.05 1021.39 1020.70 1019.96 1019.13 1018.19 1017.15
1023.85 1024.43 1024.98 1025.53 1026.10 1026.71 1027.34 1027.97 1028.56 1029.08 1029.51 1029.86 1030.13 1030.35 1030.58 1030.82 1031.13 1031.48 1031.88 1032.27 1032.62 1032.87 1032.99 1032.94 1032.72 1032.35 1031.86 1031.28 1030.67 1030.06 1029.47 1028.91 1028.38 1027.86 1027.33 1026.79 1026.22 1025.62 1025.02 1024.40 1023.80 1023.20 1022.60 1021.99 1021.33 1020.59 1019.74 1018.77 1017.67
1023.78 1024.23 1024.71 1025.24 1025.83 1026.48 1027.18 1027.86 1028.51 1029.07 1029.53 1029.90 1030.19 1030.44 1030.69 1030.98 1031.32 1031.73 1032.16 1032.59 1032.96 1033.23 1033.37 1033.35 1033.16 1032.82 1032.38 1031.85 1031.28 1030.70 1030.12 1029.54 1028.97 1028.39 1027.80 1027.19 1026.57 1025.95 1025.33 1024.73 1024.16 1023.60 1023.04 1022.45 1021.80 1021.07 1020.21 1019.22 1018.10
1023.73 1024.07 1024.48 1024.97 1025.58 1026.26 1026.99 1027.73 1028.41 1029.02 1029.51 1029.92 1030.25 1030.55 1030.86 1031.20 1031.59 1032.03 1032.48 1032.92 1033.30 1033.56 1033.70 1033.68 1033.51 1033.21 1032.81 1032.33 1031.81 1031.26 1030.69 1030.11 1029.50 1028.87 1028.22 1027.56 1026.90 1026.24 1025.61 1025.01 1024.44 1023.89 1023.34 1022.75 1022.11 1021.37 1020.52 1019.55 1018.46
1023.76 1024.00 1024.34 1024.81 1025.40 1026.09 1026.84 1027.59 1028.30 1028.92 1029.46 1029.90 1030.29 1030.66 1031.03 1031.43 1031.88 1032.35 1032.82 1033.25 1033.60 1033.84 1033.94 1033.91 1033.75 1033.47 1033.11 1032.69 1032.22 1031.71 1031.16 1030.58 1029.96 1029.30 1028.61 1027.90 1027.20 1026.51 1025.86 1025.24 1024.65 1024.08 1023.50 1022.90 1022.24 1021.51 1020.68 1019.76 1018.74
1023.92 1024.08 1024.36 1024.79 1025.35 1026.02 1026.75 1027.49 1028.18 1028.81 1029.36 1029.85 1030.29 1030.73 1031.17 1031.65 1032.14 1032.65 1033.12 1033.53 1033.85 1034.04 1034.11 1034.05 1033.88 1033.62 1033.30 1032.92 1032.50 1032.03 1031.51 1030.95 1030.33 1029.66 1028.95 1028.22 1027.49 1026.78 1026.09 1025.44 1024.81 1024.20 1023.58 1022.93 1022.25 1021.51 1020.72 1019.86 1018.94
1024.22 1024.32 1024.56 1024.95 1025.47 1026.09 1026.77 1027.45 1028.11 1028.71 1029.25 1029.76 1030.25 1030.74 1031.26 1031.79 1032.34 1032.88 1033.36 1033.75 1034.03 1034.18 1034.21 1034.12 1033.94 1033.69 1033.39 1033.04 1032.66 1032.24 1031.76 1031.22 1030.62 1029.95 1029.24 1028.51 1027.77 1027.04 1026.33 1025.63 1024.96 1024.28 1023.60 1022.90 1022.18 1021.44 1020.68 1019.89 1019.09
1024.65 1024.72 1024.93 1025.28 1025.75 1026.31 1026.91 1027.52 1028.10 1028.65 1029.16 1029.66 1030.18 1030.71 1031.29 1031.88 1032.48 1033.04 1033.52 1033.90 1034.14 1034.26 1034.25 1034.14 1033.95 1033.70 1033.42 1033.11 1032.76 1032.37 1031.93 1031.41 1030.83 1030.19 1029.49 1028.77 1028.03 1027.29 1026.56 1025.83 1025.10 1024.37 1023.62 1022.86 1022.09 1021.32 1020.58 1019.86 1019.16
1025.17 1025.23 1025.42 1025.74 1026.16 1026.66 1027.17 1027.69 1028.18 1028.65 1029.12 1029.60 1030.12 1030.68 1031.30 1031.93 1032.56 1033.14 1033.63 1034.00 1034.22 1034.31 1034.28 1034.15 1033.95 1033.71 1033.45 1033.15 1032.83 1032.47 1032.04 1031.55 1030.99 1030.37 1029.69 1028.99 1028.26 1027.53 1026.78 1026.03 1025.26 1024.46 1023.64 1022.81 1021.99 1021.19 1020.45 1019.76 1019.13
1025.70 1025.78 1025.97 1026.27 1026.65 1027.08 1027.51 1027.94 1028.34 1028.74 1029.15 1029.61 1030.12 1030.70 1031.33 1031.99 1032.64 1033.23 1033.72 1034.08 1034.30 1034.37 1034.32 1034.19 1033.99 1033.75 1033.50 1033.22 1032.90 1032.55 1032.13 1031.65 1031.10 1030.49 1029.84 1029.15 1028.44 1027.72 1026.98 1026.21 1025.40 1024.55 1023.67 1022.77 1021.89 1021.05 1020.28 1019.59 1018.98
1026.19 1026.28 1026.49 1026.78 1027.13 1027.50 1027.87 1028.22 1028.56 1028.90 1029.27 1029.70 1030.21 1030.79 1031.44 1032.11 1032.77 1033.36 1033.84 1034.19 1034.39 1034.46 1034.41 1034.27 1034.07 1033.84 1033.59 1033.31 1032.99 1032.63 1032.21 1031.72 1031.17 1030.56 1029.92 1029.25 1028.56 1027.85 1027.11 1026.33 1025.50 1024.61 1023.68 1022.72 1021.78 1020.88 1020.07 1019.35 1018.72
1026.58 1026.69 1026.89 1027.18 1027.50 1027.84 1028.17 1028.48 1028.78 1029.10 1029.46 1029.89 1030.41 1031.00 1031.66 1032.34 1032.99 1033.57 1034.03 1034.36 1034.55 1034.60 1034.54 1034.40 1034.21 1033.98 1033.72 1033.43 1033.10 1032.72 1032.27 1031.76 1031.20 1030.58 1029.94 1029.28 1028.60 1027.90 1027.16 1026.38 1025.53 1024.62 1023.65 1022.64 1021.64 1020.69 1019.81 1019.04 1018.36
1026.83 1026.94 1027.14 1027.40 1027.71 1028.03 1028.34 1028.65 1028.96 1029.30 1029.69 1030.16 1030.71 1031.34 1032.01 1032.69 1033.33 1033.89 1034.32 1034.62 1034.77 1034.80 1034.72 1034.57 1034.37 1034.13 1033.86 1033.56 1033.20 1032.79 1032.32 1031.78 1031.19 1030.56 1029.90 1029.24 1028.56 1027.86 1027.13 1026.34 1025.48 1024.55 1023.55 1022.51 1021.46 1020.45 1019.52 1018.68 1017.94
1026.97 1027.05 1027.21 1027.45 1027.73 1028.03 1028.35 1028.68 1029.04 1029.45 1029.92 1030.47 1031.09 1031.77 1032.48 1033.16 1033.79 1034.31 1034.70 1034.95 1035.06 1035.04 1034.93 1034.76 1034.53 1034.28 1033.99 1033.66 1033.28 1032.85 1032.34 1031.78 1031.16 1030.51 1029.83 1029.15 1028.46 1027.75 1027.01 1026.21 1025.34 1024.40 1023.38 1022.31 1021.23 1020.18 1019.20 1018.31 1017.51
Thickness
5754 5761 5763 5749 5726 5706 5686 5687 5699 5703 5698 5693 5693 5683 5662 5647 5642 5630 5629 5638 5643 5648 5650 5655 5660 5665 5669 5672 5675 5678 5681 5684 5687 5690 5693 5695 5698 5699 5701 5703 5704 5706 5707 5708 5710 5711 5713 5714 5716
5754 5760 5753 5737 5711 5682 5674 5683 5685 5693 5699 5694 5684 5673 5658 5640 5632 5629 5632 5638 5642 5645 5646 5649 5653 5657 5660 5662 5665 5667 5670 5673 5675 5678 5681 5685 5688 5691 5694 5695 5697 5699 5700 5702 5704 5706 5708 5710 5712
5756 5758 5740 5718 5692 5676 5670 5678 5684 5689 5694 5688 5669 5655 5642 5631 5627 5627 5632 5636 5640 5642 5643 5644 5647 5650 5652 5653 5655 5657 5659 5662 5664 5667 5669 5673 5676 5680 5683 5686 5689 5691 5693 5695 5697 5699 5702 5704 5707
5756 5749 5735 5695 5669 5668 5672 5678 5692 5690 5685 5681 5668 5645 5630 5627 5626 5629 5632 5634 5635 5636 5637 5638 5640 5642 5644 5645 5646 5647 5649 5651 5653 5655 5658 5661 5664 5667 5670 5674 5677 5681 5684 5687 5690 5692 5695 5698 5700
5755 5739 5706 5679 5668 5665 5671 5678 5681 5678 5674 5666 5660 5637 5625 5627 5629 5630 5629 5630 5630 5630 5630 5631 5633 5634 5636 5637 5637 5638 5639 5640 5642 5643 5645 5648 5651 5655 5658 5661 5664 5668 5672 5677 5681 5685 5687 5690 5693
5745 5734 5695 5672 5666 5665 5663 5669 5671 5663 5658 5658 5653 5638 5622 5626 5627 5627 5626 5625 5624 5624 5624 5624 5625 5625 5626 5628 5628 5629 5629 5630 5631 5633 5633 5635 5638 5641 5644 5647 5650 5655 5659 5664 5669 5675 5679 5682 5685
5737 5718 5693 5679 5670 5664 5663 5662 5656 5649 5646 5646 5653 5638 5622 5623 5625 5625 5622 5620 5618 5617 5617 5616 5617 5616 5616 5617 5618 5618 5619 5618 5619 5621 5621 5622 5625 5627 5630 5633 5636 5641 5646 5651 5657 5663 5669 5673 5677
5744 5721 5698 5687 5673 5660 5658 5657 5648 5644 5637 5641 5642 5628 5615 5618 5620 5619 5617 5614 5611 5609 5608 5606 5605 5604 5603 5604 5604 5604 5604 5604 5604 5605 5606 5607 5609 5612 5615 5617 5621 5625 5631 5636 5643 5649 5655 5661 5667
5749 5705 5680 5682 5673 5663 5661 5652 5646 5639 5633 5631 5627 5620 5616 5615 5613 5610 5607 5605 5602 5599 5596 5593 5591 5589 5588 5587 5587 5586 5586 5585 5585 5586 5587 5589 5590 5593 5597 5599 5604 5609 5614 5620 5627 5633 5640 5648 5655
5720 5682 5668 5675 5675 5664 5659 5653 5648 5637 5629 5623 5619 5615 5613 5608 5604 5600 5597 5594 5590 5587 5583 5579 5576 5573 5571 5570 5569 5568 5567 5565 5564 5564 5565 5567 5569 5571 5575 5578 5583 5589 5596 5603 5609 5615 5623 5631 5639
5702 5676 5669 5667 5667 5661 5653 5647 5645 5632 5617 5614 5611 5607 5604 5599 5594 5590 5586 5581 5576 5572 5568 5564 5560 5556 5553 5550 5548 5546 5544 5543 5540 5539 5539 5541 5544 5546 5550 5554 5560 5567 5575 5583 5590 5596 5604 5612 5621
5687 5677 5674 5664 5663 5656 5647 5638 5628 5623 5614 5611 5607 5602 5596 5591 5585 5579 5574 5569 5564 5558 5553 5548 5543 5537 5532 5528 5524 5521 5519 5516 5514 5513 5512 5513 5515 5517 5520 5525 5532 5540 5549 5558 5566 5573 5583 5593 5603
5675 5662 5661 5656 5653 5648 5641 5632 5624 5615 5612 5608 5603 5596 5589 5582 5576 5570 5563 5556 5550 5543 5536 5529 5523 5517 5511 5506 5500 5497 5493 5489 5486 5485 5484 5484 5484 5485 5488 5494 5501 5510 5520 5530 5539 5549 5561 5572 5583
5675 5664 5657 5653 5650 5645 5637 5629 5622 5612 5610 5604 5598 5590 5583 5576 5568 5559 5550 5542 5534 5525 5517 5509 5502 5494 5487 5481 5475 5470 5465 5461 5457 5454 5452 5452 5452 5453 5456 5462 5469 5478 5488 5499 5510 5522 5534 5547 5560
5675 5663 5655 5651 5648 5642 5638 5622 5614 5611 5609 5602 5595 5587 5578 5569 5559 5548 5537 5527 5517 5507 5498 5489 5481 5471 5463 5456 5448 5441 5435 5430 5427 5424 5422 5421 5420 5423 5426 5431 5438 5446 5456 5467 5480 5493 5506 5520 5534
5678 5667 5656 5652 5651 5644 5635 5620 5612 5610 5604 5596 5588 5579 5570 5560 5549 5535 5523 5512 5500 5489 5478 5467 5457 5448 5439 5431 5421 5414 5407 5402 5399 5397 5395 5394 5394 5396 5399 5404 5411 5417 5425 5435 5448 5462 5475 5490 5505
5678 5676 5658 5648 5650 5646 5637 5619 5609 5605 5597 5589 5580 5570 5560 5549 5537 5523 5510 5496 5483 5470 5458 5446 5435 5425 5415 5407 5397 5389 5383 5378 5376 5374 5373 5371 5372 5373 5376 5381 5386 5391 5398 5406 5416 5428 5442 5459 5475
5676 5683 5672 5651 5643 5642 5633 5612 5603 5597 5591 5582 5572 5561 5549 5537 5523 5510 5495 5480 5465 5451 5438 5425 5413 5401 5392 5383 5375 5369 5363 5358 5355 5354 5352 5351 5351 5353 5356 5361 5365 5369 5375 5381 5388 5399 5412 5427 5444
5683 5678 5667 5646 5637 5634 5627 5609 5599 5591 5583 5573 5562 5551 5539 5525 5511 5496 5480 5464 5448 5433 5419 5406 5393 5380 5370 5362 5355 5350 5344 5340 5337 5333 5330 5329 5329 5331 5334 5339 5344 5348 5353 5359 5366 5375 5387 5400 5415
5679 5671 5661 5641 5634 5630 5621 5610 5599 5587 5576 5563 5553 5542 5531 5515 5499 5483 5466 5449 5432 5416 5400 5386 5373 5361 5350 5340 5332 5325 5320 5316 5314 5309 5307 5305 5306 5308 5311 5316 5321 5327 5333 5340 5347 5355 5365 5376 5387
5672 5658 5648 5642 5626 5623 5615 5607 5596 5581 5569 5557 5547 5537 5522 5505 5486 5470 5453 5434 5416 5399 5383 5369 5355 5344 5333 5323 5315 5309 5305 5301 5297 5294 5290 5287 5286 5286 5289 5293 5298 5305 5312 5321 5328 5336 5345 5355 5365
5657 5648 5644 5640 5622 5619 5609 5599 5589 5574 5560 5551 5541 5525 5508 5491 5475 5458 5439 5420 5402 5384 5367 5352 5340 5329 5318 5308 5300 5292 5287 5282 5278 5275 5273 5271 5268 5268 5270 5273 5277 5283 5291 5300 5309 5318 5326 5336 5347
5649 5647 5640 5637 5626 5618 5608 5595 5586 5569 5556 5546 5531 5514 5498 5481 5464 5444 5425 5406 5388 5370 5354 5339 5327 5316 5306 5296 5286 5279 5272 5266 5262 5259 5257 5255 5254 5253 5253 5255 5258 5264 5271 5280 5290 5300 5310 5320 5329
5648 5645 5639 5632 5618 5607 5619 5597 5585 5567 5555 5535 5518 5504 5488 5471 5451 5431 5412 5393 5375 5357 5342 5328 5317 5306 5296 5285 5276 5267 5260 5255 5250 5246 5243 5241 5240 5239 5238 5240 5242 5247 5253 5261 5271 5282 5294 5304 5314
5645 5634 5624 5616 5607 5612 5619 5607 5572 5552 5538 5523 5510 5496 5478 5458 5437 5418 5400 5381 5363 5347 5332 5319 5307 5296 5286 5276 5267 5258 5250 5243 5236 5232 5229 5228 5227 5226 5225 5225 5228 5232 5238 5245 5254 5265 5278 5289 5300
5637 5630 5606 5596 5602 5613 5612 5589 5549 5545 5532 5521 5508 5489 5467 5445 5425 5405 5387 5368 5351 5336 5322 5310 5298 5287 5277 5267 5257 5248 5240 5232 5226 5220 5217 5215 5213 5212 5212 5212 5214 5218 5223 5230 5238 5249 5261 5274 5286
5626 5619 5614 5600 5602 5597 5603 5560 5547 5540 5528 5516 5498 5477 5454 5434 5413 5394 5376 5357 5341 5326 5313 5301 5290 5279 5268 5258 5249 5240 5231 5223 5217 5212 5208 5205 5203 5202 5201 5200 5201 5204 5209 5215 5223 5233 5246 5259 5273
5624 5615 5607 5596 5582 5576 5593 5583 5552 5532 5522 5504 5486 5464 5443 5424 5403 5384 5365 5348 5332 5318 5305 5293 5281 5270 5259 5249 5239 5231 5222 5216 5210 5204 5200 5197 5194 5192 5191 5190 5190 5192 5196 5202 5210 5220 5231 5245 5260
5619 5615 5608 5597 5587 5566 5562 5562 5547 5526 5510 5495 5478 5455 5433 5413 5393 5373 5355 5339 5324 5311 5299 5287 5275 5264 5252 5242 5232 5223 5215 5208 5202 5196 5191 5187 5184 5182 5180 5179 5179 5181 5184 5190 5198 5208 5220 5234 5248
5613 5608 5600 5583 5581 5579 5564 5550 5538 5519 5507 5491 5469 5447 5426 5405 5383 5364 5347 5331 5317 5305 5293 5280 5268 5256 5245 5235 5225 5216 5208 5200 5193 5186 5180 5176 5173 5170 5167 5167 5167 5169 5173 5179 5187 5198 5209 5223 5238